Time,TemperatureF,DewpointF,PressureIn,WindDirection,WindDirectionDegrees,WindSpeedMPH,WindSpeedGustMPH,Humidity,HourlyPrecipIn,Conditions,Clouds,dailyrainin,SoftwareType,DateUTC
2013-01-20 00:03:00,42.8,36.4,29.88,SSW,202,2.7,-999.0,78,-99.99,,,0.00,Acu-Link.com,2013-01-20 05:03:00,
2013-01-20 00:18:00,42.6,36.2,29.87,SE,135,2.7,-999.0,78,-99.99,,,0.00,Acu-Link.com,2013-01-20 05:18:00,
2013-01-20 00:34:00,42.6,36.6,29.87,ESE,112,6.8,-999.0,79,-99.99,,,0.00,Acu-Link.com,2013-01-20 05:34:00,
2013-01-20 00:49:00,43.2,36.8,29.86,NE,45,1.1,-999.0,78,-99.99,,,0.00,Acu-Link.com,2013-01-20 05:49:00,
2013-01-20 01:04:00,43.2,36.8,29.85,West,270,5.3,-999.0,78,-99.99,,,0.00,Acu-Link.com,2013-01-20 06:04:00,
2013-01-20 01:20:00,43.7,37.3,29.84,West,270,5.3,-999.0,78,-99.99,,,0.00,Acu-Link.com,2013-01-20 06:20:00,
2013-01-20 01:35:00,43.2,37.1,29.84,SW,225,5.8,-999.0,79,-99.99,,,0.00,Acu-Link.com,2013-01-20 06:35:00,
2013-01-20 01:50:00,42.8,37.1,29.83,SSW,202,2.2,-999.0,80,-99.99,,,0.00,Acu-Link.com,2013-01-20 06:50:00,
2013-01-20 02:06:00,42.3,37.2,29.82,South,180,0.0,-999.0,82,-99.99,,,0.00,Acu-Link.com,2013-01-20 07:06:00,
2013-01-20 02:21:00,41.2,36.7,29.83,WSW,247,2.2,-999.0,84,-99.99,,,0.00,Acu-Link.com,2013-01-20 07:21:00,
2013-01-20 02:36:00,41.0,36.8,29.82,SSE,157,0.0,-999.0,85,-99.99,,,0.00,Acu-Link.com,2013-01-20 07:36:00,
2013-01-20 02:52:00,40.1,36.3,29.81,NNW,337,0.0,-999.0,86,-99.99,,,0.00,Acu-Link.com,2013-01-20 07:52:00,
2013-01-20 03:08:00,40.1,36.8,29.79,SSW,202,5.3,-999.0,88,-99.99,,,0.00,Acu-Link.com,2013-01-20 08:08:00,
2013-01-20 03:23:00,40.5,36.9,29.79,ESE,112,0.0,-999.0,87,-99.99,,,0.00,Acu-Link.com,2013-01-20 08:23:00,
2013-01-20 03:39:00,40.5,36.6,29.79,NW,315,5.3,-999.0,86,-99.99,,,0.00,Acu-Link.com,2013-01-20 08:39:00,
2013-01-20 03:54:00,41.0,36.5,29.79,North,0,2.2,-999.0,84,-99.99,,,0.00,Acu-Link.com,2013-01-20 08:54:00,
2013-01-20 04:15:00,40.6,36.2,29.78,West,270,3.2,-999.0,84,-99.99,,,0.00,Acu-Link.com,2013-01-20 09:15:00,
2013-01-20 04:30:00,40.8,36.3,29.77,SSW,202,0.0,-999.0,84,-99.99,,,0.00,Acu-Link.com,2013-01-20 09:30:00,
2013-01-20 04:45:00,41.0,36.2,29.76,SE,135,1.1,-999.0,83,-99.99,,,0.00,Acu-Link.com,2013-01-20 09:45:00,
2013-01-20 05:00:00,41.2,36.1,29.75,SSW,202,3.2,-999.0,82,-99.99,,,0.00,Acu-Link.com,2013-01-20 10:00:00,
2013-01-20 05:15:00,41.0,35.9,29.74,NNE,22,3.2,-999.0,82,-99.99,,,0.00,Acu-Link.com,2013-01-20 10:15:00,
2013-01-20 05:31:00,41.4,36.0,29.73,West,270,2.7,-999.0,81,-99.99,,,0.00,Acu-Link.com,2013-01-20 10:31:00,
2013-01-20 05:46:00,41.0,35.9,29.72,SW,225,3.7,-999.0,82,-99.99,,,0.00,Acu-Link.com,2013-01-20 10:46:00,
2013-01-20 06:01:00,40.8,35.7,29.72,South,180,4.2,-999.0,82,-99.99,,,0.00,Acu-Link.com,2013-01-20 11:01:00,
2013-01-20 06:17:00,40.5,35.4,29.71,West,270,1.7,-999.0,82,-99.99,,,0.00,Acu-Link.com,2013-01-20 11:17:00,
2013-01-20 06:32:00,39.9,35.2,29.70,NW,315,1.1,-999.0,83,-99.99,,,0.00,Acu-Link.com,2013-01-20 11:32:00,
2013-01-20 06:47:00,39.0,35.2,29.70,ENE,67,1.1,-999.0,86,-99.99,,,0.00,Acu-Link.com,2013-01-20 11:47:00,
2013-01-20 07:03:00,39.9,34.9,29.70,ENE,67,1.1,-999.0,82,-99.99,,,0.00,Acu-Link.com,2013-01-20 12:03:00,
2013-01-20 07:18:00,40.1,34.4,29.70,South,180,4.2,-999.0,80,-99.99,,,0.00,Acu-Link.com,2013-01-20 12:18:00,
2013-01-20 07:34:00,41.0,34.4,29.69,SSE,157,2.2,-999.0,77,-99.99,,,0.00,Acu-Link.com,2013-01-20 12:34:00,
2013-01-20 07:49:00,42.3,35.3,29.67,WSW,247,3.7,-999.0,76,-99.99,,,0.00,Acu-Link.com,2013-01-20 12:49:00,
2013-01-20 08:04:00,43.7,35.6,29.68,West,270,6.8,-999.0,73,-99.99,,,0.00,Acu-Link.com,2013-01-20 13:04:00,
2013-01-20 08:19:00,44.4,35.6,29.68,NNE,22,3.2,-999.0,71,-99.99,,,0.00,Acu-Link.com,2013-01-20 13:19:00,
2013-01-20 08:35:00,45.9,35.9,29.68,WNW,292,1.7,-999.0,68,-99.99,,,0.00,Acu-Link.com,2013-01-20 13:35:00,
2013-01-20 08:50:00,46.6,35.9,29.68,NNW,337,3.2,-999.0,66,-99.99,,,0.00,Acu-Link.com,2013-01-20 13:50:00,
2013-01-20 09:06:00,47.7,35.7,29.68,WSW,247,7.8,-999.0,63,-99.99,,,0.00,Acu-Link.com,2013-01-20 14:06:00,
2013-01-20 09:21:00,48.0,35.6,29.68,West,270,8.9,-999.0,62,-99.99,,,0.00,Acu-Link.com,2013-01-20 14:21:00,
2013-01-20 09:36:00,48.4,35.2,29.68,NNW,337,6.3,-999.0,60,-99.99,,,0.00,Acu-Link.com,2013-01-20 14:36:00,
2013-01-20 09:51:00,49.5,34.9,29.69,WSW,247,6.8,-999.0,57,-99.99,,,0.00,Acu-Link.com,2013-01-20 14:51:00,
2013-01-20 10:07:00,50.4,33.9,29.68,NNW,337,9.9,-999.0,53,-99.99,,,0.00,Acu-Link.com,2013-01-20 15:07:00,
2013-01-20 10:22:00,51.4,34.4,29.67,SSW,202,5.8,-999.0,52,-99.99,,,0.00,Acu-Link.com,2013-01-20 15:22:00,
2013-01-20 10:37:00,52.0,34.9,29.68,NW,315,11.4,-999.0,52,-99.99,,,0.00,Acu-Link.com,2013-01-20 15:37:00,
2013-01-20 10:53:00,51.4,33.9,29.66,West,270,5.3,-999.0,51,-99.99,,,0.00,Acu-Link.com,2013-01-20 15:53:00,
2013-01-20 11:08:00,52.7,33.6,29.65,South,180,9.9,-999.0,48,-99.99,,,0.00,Acu-Link.com,2013-01-20 16:08:00,
2013-01-20 11:23:00,53.1,33.9,29.63,West,270,6.3,-999.0,48,-99.99,,,0.00,Acu-Link.com,2013-01-20 16:23:00,
2013-01-20 11:39:00,52.7,34.1,29.62,SSW,202,3.2,-999.0,49,-99.99,,,0.00,Acu-Link.com,2013-01-20 16:39:00,
2013-01-20 11:54:00,53.2,33.5,29.61,South,180,5.3,-999.0,47,-99.99,,,0.00,Acu-Link.com,2013-01-20 16:54:00,
2013-01-20 12:09:00,53.1,33.4,29.61,SW,225,4.2,-999.0,47,-99.99,,,0.00,Acu-Link.com,2013-01-20 17:09:00,
2013-01-20 12:25:00,53.4,33.7,29.60,NE,45,17.1,-999.0,47,-99.99,,,0.00,Acu-Link.com,2013-01-20 17:25:00,
2013-01-20 12:40:00,54.3,32.9,29.59,West,270,14.5,-999.0,44,-99.99,,,0.00,Acu-Link.com,2013-01-20 17:40:00,
2013-01-20 12:55:00,53.8,33.0,29.59,SW,225,9.9,-999.0,45,-99.99,,,0.00,Acu-Link.com,2013-01-20 17:55:00,
2013-01-20 13:10:00,54.3,32.9,29.58,West,270,6.3,-999.0,44,-99.99,,,0.00,Acu-Link.com,2013-01-20 18:10:00,
2013-01-20 13:26:00,53.4,32.0,29.58,South,180,6.8,-999.0,44,-99.99,,,0.00,Acu-Link.com,2013-01-20 18:26:00,
2013-01-20 13:41:00,52.7,32.0,29.58,WSW,247,8.9,-999.0,45,-99.99,,,0.00,Acu-Link.com,2013-01-20 18:41:00,
2013-01-20 13:56:00,52.2,32.6,29.58,South,180,4.2,-999.0,47,-99.99,,,0.00,Acu-Link.com,2013-01-20 18:56:00,
2013-01-20 14:12:00,51.3,32.3,29.58,SSE,157,1.1,-999.0,48,-99.99,,,0.00,Acu-Link.com,2013-01-20 19:12:00,
2013-01-20 15:12:00,51.8,32.7,29.59,SW,225,4.2,-999.0,48,-99.99,,,0.00,Acu-Link.com,2013-01-20 20:12:00,
2013-01-20 15:27:00,50.7,30.1,29.62,West,270,7.8,-999.0,45,-99.99,,,0.00,Acu-Link.com,2013-01-20 20:27:00,
2013-01-20 15:42:00,50.7,29.0,29.62,South,180,3.2,-999.0,43,-99.99,,,0.00,Acu-Link.com,2013-01-20 20:42:00,
2013-01-20 15:58:00,50.4,29.3,29.63,SW,225,2.2,-999.0,44,-99.99,,,0.00,Acu-Link.com,2013-01-20 20:58:00,
2013-01-20 16:13:00,49.1,29.2,29.64,SSW,202,4.7,-999.0,46,-99.99,,,0.00,Acu-Link.com,2013-01-20 21:13:00,
2013-01-20 16:29:00,48.2,29.9,29.64,East,90,0.0,-999.0,49,-99.99,,,0.00,Acu-Link.com,2013-01-20 21:29:00,
2013-01-20 16:44:00,47.8,29.6,29.65,WSW,247,1.7,-999.0,49,-99.99,,,0.00,Acu-Link.com,2013-01-20 21:44:00,
2013-01-20 17:00:00,46.8,30.1,29.66,WNW,292,0.0,-999.0,52,-99.99,,,0.00,Acu-Link.com,2013-01-20 22:00:00,
2013-01-20 17:15:00,45.1,29.0,29.67,WNW,292,2.2,-999.0,53,-99.99,,,0.00,Acu-Link.com,2013-01-20 22:15:00,
2013-01-20 17:31:00,46.0,23.0,29.69,ENE,67,5.3,-999.0,40,-99.99,,,0.00,Acu-Link.com,2013-01-20 22:31:00,
2013-01-20 17:46:00,46.4,20.3,29.70,SSW,202,5.3,-999.0,35,-99.99,,,0.00,Acu-Link.com,2013-01-20 22:46:00,
2013-01-20 18:01:00,46.0,18.5,29.71,West,270,5.8,-999.0,33,-99.99,,,0.00,Acu-Link.com,2013-01-20 23:01:00,
2013-01-20 18:16:00,45.3,18.6,29.72,SE,135,3.2,-999.0,34,-99.99,,,0.00,Acu-Link.com,2013-01-20 23:16:00,
2013-01-20 18:32:00,44.2,16.9,29.74,NNE,22,6.3,-999.0,33,-99.99,,,0.00,Acu-Link.com,2013-01-20 23:32:00,
2013-01-20 18:47:00,42.4,16.7,29.75,SE,135,3.2,-999.0,35,-99.99,,,0.00,Acu-Link.com,2013-01-20 23:47:00,
2013-01-20 19:02:00,40.8,17.8,29.76,NNW,337,2.2,-999.0,39,-99.99,,,0.00,Acu-Link.com,2013-01-21 00:02:00,
2013-01-20 19:18:00,39.9,17.0,29.78,NNE,22,5.3,-999.0,39,-99.99,,,0.00,Acu-Link.com,2013-01-21 00:18:00,
2013-01-20 19:33:00,38.8,17.7,29.78,ESE,112,0.0,-999.0,42,-99.99,,,0.00,Acu-Link.com,2013-01-21 00:33:00,
2013-01-20 19:49:00,37.9,17.4,29.80,NE,45,2.2,-999.0,43,-99.99,,,0.00,Acu-Link.com,2013-01-21 00:49:00,
2013-01-20 20:04:00,37.2,17.3,29.81,ENE,67,1.7,-999.0,44,-99.99,,,0.00,Acu-Link.com,2013-01-21 01:04:00,
2013-01-20 20:19:00,36.5,17.2,29.82,SSE,157,0.0,-999.0,45,-99.99,,,0.00,Acu-Link.com,2013-01-21 01:19:00,
2013-01-20 20:35:00,36.0,16.7,29.83,ESE,112,2.2,-999.0,45,-99.99,,,0.00,Acu-Link.com,2013-01-21 01:35:00,
2013-01-20 20:50:00,35.2,17.0,29.84,NNW,337,4.2,-999.0,47,-99.99,,,0.00,Acu-Link.com,2013-01-21 01:50:00,
2013-01-20 21:05:00,34.5,16.9,29.85,WSW,247,3.2,-999.0,48,-99.99,,,0.00,Acu-Link.com,2013-01-21 02:05:00,
2013-01-20 21:20:00,34.2,16.6,29.86,North,0,1.7,-999.0,48,-99.99,,,0.00,Acu-Link.com,2013-01-21 02:20:00,
2013-01-20 21:36:00,33.8,16.2,29.87,West,270,5.3,-999.0,48,-99.99,,,0.00,Acu-Link.com,2013-01-21 02:36:00,
2013-01-20 21:51:00,33.4,15.8,29.88,West,270,5.3,-999.0,48,-99.99,,,0.00,Acu-Link.com,2013-01-21 02:51:00,
2013-01-20 22:21:00,32.0,14.6,29.89,NW,315,3.7,-999.0,48,-99.99,,,0.00,Acu-Link.com,2013-01-21 03:21:00,
2013-01-20 22:37:00,31.8,14.8,29.89,NNW,337,2.2,-999.0,49,-99.99,,,0.00,Acu-Link.com,2013-01-21 03:37:00,
2013-01-20 22:52:00,31.3,13.9,29.90,North,0,1.7,-999.0,48,-99.99,,,0.00,Acu-Link.com,2013-01-21 03:52:00,
2013-01-20 23:08:00,30.6,14.2,29.90,North,0,2.2,-999.0,50,-99.99,,,0.00,Acu-Link.com,2013-01-21 04:08:00,
2013-01-20 23:23:00,30.2,13.8,29.91,West,270,4.7,-999.0,50,-99.99,,,0.00,Acu-Link.com,2013-01-21 04:23:00,
2013-01-20 23:38:00,29.8,13.9,29.90,South,180,1.1,-999.0,51,-99.99,,,0.00,Acu-Link.com,2013-01-21 04:38:00,
2013-01-20 23:54:00,29.5,13.6,29.91,WSW,247,3.7,-999.0,51,-99.99,,,0.00,Acu-Link.com,2013-01-21 04:54:00,